Погода в Днепре

Украина / Днепропетровская область     48°27′52″N   35°02′46″E
темп.,
°C
ветер,
м/с
пор.,
м/с
влажн.,
%
обл.,
%
осадки,
мм/ч
давл.,
гПа
погр.,
м
13 апреля, вт
вт1300:00+11ю3573100 0.0 1021276
03:00+9ю2485100 0.0 1022157
06:00+9ю2382100 0.0 1022135
09:00+9ююв2378100 0.0 1022260
12:00+12ю3464100 0.0 1021544
15:00+12юв3460100 0.0 1020671
18:00+13ююв356291 0.0 1020749
21:00+12юв3769100 0.0 1020368
14 апреля, ср
ср1400:00+10ююв358058 0.0 1020184
03:00+8ююв24895 0.0 1019117
06:00+7ююв2392100 0.0 101976
09:00+10ююв2375100 0.0 1019384
12:00+14юв3456100 0.0 10171296
15:00+16ююв3346100 0.1 10151716
18:00+15ю344471 0.0 10151322
21:00+12ююв23555 0.0 1015110
15 апреля, чт
чт1500:00+10ююв3673100 0.0 1014220
03:00+9юв3779100 0.0 1014237
06:00+8ююв3685100 0.2 1014303
09:00+10юв4678100 0.4 1014440
12:00+12ююв5876100 0.8 1013822
15:00+13ю586664 1.5 10131159
18:00+12ююз586392 0.3 1013781
21:00+10ююз488063 0.3 1013385
16 апреля, пт
пт1600:00+8ююз48798 0.0 1013362
03:00+6ю497649 0.0 1014443
06:00+7ююз4978100 0.0 1014696
09:00+8ююз6107099 0.0 1015877
12:00+10ююз71056100 0.1 10151768
15:00+12ююз594876 0.3 10151823
18:00+12юз574719 0.1 10151526
21:00+8з12635 0.1 101749
17 апреля, сб
сб1700:00+7юз11695 0.0 101739
03:00+6ююз35755 0.0 1018126
06:00+5ю237924 0.0 101994
09:00+9ю456263 0.0 1019604
12:00+10ююз4560100 0.0 1020889
15:00+13юз3550100 0.0 10191492
18:00+12ююз1256100 0.1 1019564
21:00+11ю2263100 0.2 102098